Regional Weather Roundup
Issued by NWS Albany, NY

Home | Current Version | Previous Version | Graphics & Text | Print | Product List | Glossary On
Versions: 1 2 3 4 5 6 7 8 9 10 11 12 13 14 15 16 17 18 19 20 21 22 23 24 25 26 27
000
ASUS41 KALY 241910
RWRALY

NEW YORK STATE HOURLY WEATHER ROUNDUP
NATIONAL WEATHER SERVICE ALBANY NY
300 PM EDT FRI MAR 24 2017

NOTE: "FAIR" INDICATES FEW OR NO CLOUDS BELOW 12,000 FEET WITH NO
SIGNIFICANT WEATHER AND/OR NO OBSTRUCTIONS TO VISIBILITY.

NYZ032-033-038>043-046>054-057>066-NYZ062>081-082-084-242000-
EAST


CITY           SKY/WX    TMP DP  RH WIND       PRES   REMARKS
ALBANY         CLOUDY    38  28  67 S13G22    30.10F WCI  30
GLENS FALLS    CLOUDY    32  28  85 SW5       30.09F FOG     WCI  27
POUGHKEEPSIE   CLOUDY    41  28  60 S7        30.20F
NEWBURGH       CLOUDY    41  32  70 SW6       30.21F
MONTGOMERY     CLOUDY    40  33  76 SW7       30.18F
WHITE PLAINS   CLOUDY    44  31  60 VRB5      30.20F
ISLIP          CLOUDY    44  29  55 SW18G26   30.23F
NEW YORK CITY  CLOUDY    50  29  44 S10       30.22F
CENTRAL PARK   CLOUDY    48  27  44 W9G17     30.23F
$$

NYZ005>009-017-018-044>046-055-056-242000-
CENTRAL


CITY           SKY/WX    TMP DP  RH WIND       PRES   REMARKS
FULTON         CLOUDY    41  36  82 SE5       29.99F
SYRACUSE       CLOUDY    43  37  79 SE6       30.00F
ROME           CLOUDY    37  34  89 E8        30.06F WCI  31
ELMIRA         CLOUDY    55  39  54 S12       30.03F
BINGHAMTON     CLOUDY    38  33  82 S9        30.06F WCI  31
MONTICELLO     CLOUDY    34  32  93 S5        30.15F WCI  30
$$

NYZ026>034-041>043-087-242000-
NORTH


CITY           SKY/WX    TMP DP  RH WIND       PRES   REMARKS
WATERTOWN      CLOUDY    43  37  79 S14G20    29.94F
FORT DRUM      NOT AVBL
MASSENA        RAIN      33  32  96 NE6       30.01F FOG     WCI  28
SARANAC LAKE   FRZ RAIN  32  31  96 SW6       29.94F FOG     WCI  26
PLATTSBURGH    LGT SNOW  31  27  85 S9        30.05F FOG     WCI  23
$$

NYZ001>004-010>016-019>021-085-242000-
WEST


CITY           SKY/WX    TMP DP  RH WIND       PRES   REMARKS
NIAGARA FALLS  CLOUDY    60  45  57 W30G38    29.94F
BUFFALO        CLOUDY    52  40  63 SW16      29.96F
DUNKIRK        MOSUNNY   67  48  50 SW24G31   29.97F
JAMESTOWN      CLOUDY    63  46  55 SW20G28   30.00F
WELLSVILLE     MOSUNNY   60  43  53 SW13G23   30.01F
ROCHESTER      CLOUDY    60  45  57 W17       29.94F
PENN YAN       CLOUDY    53  39  59 S15       29.99F
$$

             KEY
       WCI = WIND CHILL INDEX
       VSB = VISIBILITY
       HX  = HEAT INDEX
$$




USA.gov is the U.S. government's official web portal to all federal, state and local government web resources and services.